Temperature
13 12 11 12 12 13 13 13 13 14 14 13 13 13 13 14 13 13 13 13 12 12 12 11 11 11 11 11 11 11 11 11 11 11 11 12 11 11 12 12 12 12 12 12
12 11 12 13 13 13 13 13 13 13 13 13 12 13 13 13 13 13 13 12 12 12 12 11 11 11 11 11 11 11 11 11 11 11 11 11 11 11 11 11 11 11 11 11
12 12 13 13 12 12 13 12 12 12 12 13 13 12 13 13 14 13 13 12 12 12 11 11 11 11 11 11 11 11 11 11 11 11 11 11 11 11 11 11 11 11 11 11
12 12 12 12 12 12 12 13 12 12 11 11 12 10 13 13 12 12 12 12 12 12 11 11 11 11 10 10 10 10 10 10 11 11 10 11 10 10 10 10 11 11 11 11
12 11 11 11 12 11 11 12 12 12 11 11 12 11 12 13 12 12 12 12 12 12 11 11 10 10 10 10 10 10 10 10 10 10 10 10 10 10 10 10 10 10 10 10
11 11 11 11 11 11 11 11 12 11 11 10 12 11 11 12 12 12 12 12 12 11 11 10 10 10 10 10 10 10 10 10 10 10 10 10 10 9 9 9 10 10 10 10
11 11 11 10 10 11 11 10 9 9 9 10 12 12 11 12 13 12 11 12 11 11 10 10 10 10 9 9 9 10 10 10 10 10 10 10 9 9 9 9 9 9 9 10
10 10 10 10 10 9 10 10 9 9 10 10 11 11 11 12 12 12 12 11 11 10 10 9 9 9 9 9 9 9 9 9 9 9 9 9 9 9 9 9 9 9 9 9
10 10 10 10 10 10 10 9 10 9 10 9 11 12 11 12 11 11 11 11 10 10 10 9 9 9 9 9 9 9 9 9 9 9 9 9 9 9 9 9 9 9 9 9
10 9 9 9 9 9 9 9 9 8 9 9 11 12 10 10 10 10 9 10 10 9 9 9 9 9 9 9 9 9 9 9 9 9 9 9 9 9 9 9 8 8 8 8
9 8 8 8 8 8 8 9 9 8 9 8 9 10 11 10 10 10 9 10 9 9 9 9 8 8 8 8 8 8 8 8 8 9 8 8 8 8 8 8 8 8 8 8
9 8 7 8 9 9 9 9 8 7 7 8 7 9 11 10 10 10 10 10 9 9 9 8 8 8 8 8 8 8 8 8 8 8 8 8 8 8 8 8 8 8 8 8
8 7 6 7 7 7 8 8 8 8 7 6 6 8 10 9 9 10 10 9 9 8 8 8 8 7 7 7 7 7 7 7 7 7 8 8 8 8 8 7 7 7 7 7
8 7 6 7 8 7 7 7 7 7 5 5 7 8 9 9 8 8 9 8 8 8 8 7 7 7 7 7 7 7 7 7 7 7 7 7 7 7 7 7 7 7 7 7
6 5 6 7 8 8 7 7 7 6 6 5 7 8 8 8 8 8 8 8 7 7 7 7 7 6 6 6 6 6 6 6 6 6 6 6 6 6 6 6 6 6 6 6
6 5 6 5 7 7 7 7 7 7 7 7 7 7 7 8 8 8 7 7 7 6 6 6 6 6 6 6 6 6 6 6 6 6 6 6 6 6 6 6 6 6 6 6
5 5 4 4 6 6 5 6 7 7 7 7 6 6 7 6 7 7 7 7 6 6 6 5 5 5 5 5 5 5 5 5 5 5 5 5 5 5 5 5 5 5 5 5
5 4 3 4 4 3 6 7 7 7 6 6 6 6 6 6 6 7 6 6 6 5 5 5 5 5 5 5 5 5 5 4 4 4 5 5 5 4 4 4 4 4 4 4
5 4 3 3 3 4 6 6 6 6 5 5 5 5 6 6 6 6 6 5 5 5 5 5 4 4 4 4 4 4 4 4 4 4 4 4 4 4 4 4 4 4 4 4
4 4 3 3 3 3 5 5 6 6 4 4 5 5 5 5 3 3 4 4 4 4 4 4 4 4 3 3 3 3 3 3 3 3 3 3 3 3 3 3 3 3 3 3
2 2 2 2 2 3 4 5 5 3 3 4 5 4 4 4 3 4 3 3 3 3 3 3 3 3 3 3 3 3 2 2 2 2 2 2 2 2 2 2 2 2 2 2
2 2 2 2 2 2 4 4 3 3 4 4 4 4 4 3 3 3 3 3 3 3 3 3 3 2 2 2 2 2 2 2 2 2 2 2 2 2 2 2 2 2 2 2
3 3 2 2 3 3 4 3 3 3 3 3 3 3 3 2 2 2 2 2 2 2 2 2 2 2 2 1 1 1 1 1 1 1 1 1 1 1 1 1 1 1 1 1
2 3 2 2 3 3 3 3 3 3 3 2 2 2 2 2 2 1 1 1 1 1 1 1 1 1 1 1 1 1 1 1 1 1 1 1 1 1 1 1 1 1 1 1
2 2 1 1 2 3 3 3 2 2 2 1 1 1 1 1 1 1 1 1 1 1 1 1 0 0 0 0 0 0 0 0 0 0 0 0 0 0 0 0 0 0 0 0
1 1 1 1 2 1 2 2 2 1 1 1 1 1 1 1 0 0 0 -0 -0 -0 -0 -0 -0 -0 -0 -0 -0 -0 -0 -0 -0 -0 -0 -0 -0 -0 -1 -1 -1 -1 -1 -1
Wind_Speed
5 3 3 3 4 6 6 7 6 3 1 3 6 7 5 3 3 2 2 1 2 2 3 4 4 4 4 3 4 3 3 2 2 2 1 2 2 2 2 2 3 3 3 3
3 4 3 4 5 7 8 7 5 2 1 4 6 8 5 4 4 2 2 2 2 2 3 4 4 4 3 3 3 3 3 2 2 1 1 1 2 2 2 2 2 2 2 2
3 1 1 4 4 6 7 5 5 4 4 5 5 5 5 4 3 3 2 2 1 2 3 4 4 4 3 3 2 2 2 3 2 2 2 2 2 1 1 1 1 1 2 2
3 1 2 4 4 5 6 3 4 4 3 3 3 3 4 4 4 4 4 3 2 2 3 4 4 4 3 3 2 2 2 2 2 3 2 2 2 2 1 2 2 2 2 2
1 0 2 4 3 4 5 6 5 5 5 5 5 4 4 4 4 4 4 4 4 3 4 4 4 4 4 4 3 3 2 2 2 2 2 2 2 2 1 2 3 2 2 2
2 1 1 2 3 4 4 5 5 4 3 4 6 5 4 4 5 5 5 4 4 4 4 4 4 5 4 4 3 3 2 1 1 2 2 3 2 2 2 2 2 2 2 1
3 4 2 1 3 2 3 1 1 1 3 5 2 4 4 3 3 5 5 4 4 4 4 4 4 4 3 3 3 2 2 1 1 2 3 3 3 3 3 2 2 2 1 1
3 3 4 2 1 2 4 2 2 2 3 3 2 5 2 4 6 6 6 5 4 4 4 3 3 3 3 3 3 2 2 1 1 2 3 2 2 2 2 2 2 2 2 1
2 2 2 1 1 2 2 2 2 3 4 4 5 3 2 3 5 5 5 5 3 3 3 4 3 3 3 3 2 2 2 1 1 3 3 3 2 2 2 2 1 1 1 1
4 3 2 1 2 3 3 3 1 2 2 4 5 4 4 5 4 4 4 3 2 2 2 3 3 2 2 2 2 2 2 1 1 2 2 2 2 2 2 2 2 2 2 2
3 2 2 2 5 4 3 2 3 3 3 3 4 2 2 4 4 4 3 3 2 2 2 3 3 3 3 3 2 2 1 1 1 1 2 2 1 2 2 2 2 2 2 2
1 2 4 4 1 2 3 4 4 2 4 3 3 4 2 5 4 2 2 2 2 2 2 2 2 2 2 2 2 2 2 2 1 1 1 1 2 2 2 2 2 2 2 2
1 2 2 2 1 2 3 4 4 3 2 4 4 5 1 3 3 2 1 1 1 1 1 1 2 2 2 2 2 2 2 2 2 1 1 0 1 1 1 1 2 2 2 2
2 4 6 6 3 2 5 6 6 5 5 6 9 9 5 2 2 2 1 1 0 1 1 1 1 1 1 1 1 2 1 2 2 2 2 1 1 1 2 1 1 1 1 2
2 5 7 10 9 7 9 10 9 10 10 9 9 10 8 5 4 2 1 1 1 1 1 2 2 2 2 1 1 1 1 1 1 1 1 1 1 1 1 1 1 1 2 2
3 5 5 9 10 10 13 12 13 13 13 13 13 12 7 5 4 3 2 1 1 2 2 2 2 1 2 2 1 1 1 1 1 1 1 1 1 1 1 1 1 2 2 2
5 4 3 6 6 7 10 11 13 10 9 8 11 8 5 4 4 3 3 2 2 3 2 2 2 2 2 2 2 2 1 0 1 1 1 1 1 1 2 2 2 2 2 2
7 6 4 4 3 9 6 1 3 6 5 5 4 3 3 4 4 3 2 2 3 3 2 2 2 2 2 1 1 1 1 1 1 2 2 2 2 2 2 2 2 3 3 3
9 7 5 4 6 10 5 3 3 4 4 2 4 4 5 5 5 4 3 3 3 3 3 2 2 1 1 1 1 1 2 2 2 3 3 3 2 2 2 3 3 3 3 3
4 6 6 6 6 7 2 1 1 1 3 0 1 2 3 4 3 4 6 5 5 3 3 3 2 2 1 2 1 1 2 2 3 3 3 3 3 3 3 4 4 3 3 4
4 5 8 9 8 7 2 0 1 3 3 1 1 2 2 2 3 4 5 5 3 3 3 2 2 2 2 2 1 2 3 4 4 3 3 3 3 4 4 4 3 4 4 4
6 6 7 6 8 7 0 1 1 2 2 3 3 3 3 3 4 4 4 4 3 3 3 3 2 2 2 2 2 3 4 4 3 3 3 4 4 4 4 4 4 4 4 5
5 5 4 5 5 2 1 1 1 2 3 3 4 4 5 5 6 5 5 5 4 4 3 2 3 3 3 2 2 4 4 3 3 3 4 4 5 5 5 5 5 5 5 5
4 2 4 5 5 4 5 4 2 3 3 4 4 5 6 7 7 6 6 5 5 4 4 3 3 3 4 3 3 4 4 3 3 4 5 5 5 5 5 5 5 5 5 5
5 4 6 8 8 7 5 3 4 5 5 5 6 6 7 7 8 7 6 5 4 4 4 3 3 4 4 4 4 4 4 4 4 5 5 5 5 5 5 5 5 6 6 7
6 7 7 7 5 6 7 5 6 6 7 7 7 8 7 6 6 6 5 5 4 4 4 4 4 4 5 5 5 4 4 4 4 5 5 4 4 4 4 5 6 8 9 10
Wind_Direction
193 222 238 249 254 277 291 277 279 292 20 268 253 258 262 235 210 212 219 213 143 136 119 108 104 104 101 93 89 88 93 97 90 88 129 138 129 106 96 99 117 138 138 133
221 237 263 277 276 282 277 281 285 317 341 285 266 265 251 216 200 197 197 199 161 148 117 107 102 96 87 91 98 96 86 85 97 101 109 113 110 99 103 94 95 118 128 130
242 282 286 268 276 288 276 275 296 302 297 253 269 274 231 206 181 159 149 151 153 145 142 133 118 107 99 92 98 106 112 104 95 91 82 89 87 77 85 104 110 120 128 125
237 242 268 274 275 284 277 311 301 293 298 260 222 277 237 195 186 178 171 167 186 163 139 134 127 122 119 114 104 106 120 121 124 121 126 137 136 145 158 141 141 142 139 134
244 72 283 271 288 287 287 317 288 267 263 274 242 244 253 173 199 200 177 164 165 151 135 132 133 133 120 111 110 104 106 124 133 142 156 162 136 125 117 118 135 141 142 152
240 196 272 300 305 259 281 287 270 246 251 258 228 218 251 197 207 186 168 148 140 130 125 122 116 110 102 100 104 106 108 125 133 150 169 179 166 159 138 133 142 151 149 160
225 187 171 287 301 243 274 302 359 308 230 239 202 211 237 170 129 133 137 132 127 123 121 119 115 114 114 115 119 125 131 163 172 179 187 186 187 181 175 171 178 169 157 158
261 224 171 196 276 267 266 259 184 228 251 268 255 225 213 108 97 101 107 109 107 117 119 119 126 131 132 138 144 143 147 166 223 190 188 182 178 173 176 182 181 180 170 150
286 260 125 131 300 284 277 242 277 289 287 270 238 195 139 106 100 102 107 106 122 128 129 136 137 138 139 145 153 153 146 171 206 183 177 174 178 176 177 178 179 175 163 155
319 285 220 166 225 238 279 300 259 218 259 271 262 225 203 174 165 140 130 129 124 134 139 146 149 151 147 147 137 133 141 163 160 163 166 164 180 173 171 167 185 185 184 181
282 260 238 203 212 221 213 236 247 252 253 247 276 274 53 132 144 145 149 151 162 166 169 168 158 159 155 148 149 148 147 140 125 136 153 157 172 173 173 179 193 192 193 191
245 260 249 240 249 301 247 229 204 213 259 245 268 274 62 83 88 93 130 138 144 159 157 152 154 148 151 157 159 160 161 149 143 131 134 165 174 175 178 183 198 200 206 202
225 227 264 254 242 224 254 241 239 252 275 238 231 252 119 61 32 16 46 105 126 144 159 144 144 151 166 169 166 163 164 163 156 136 129 166 193 180 197 208 212 208 209 209
301 244 223 234 260 220 249 245 234 220 219 243 239 255 261 274 295 312 337 2 4 199 206 192 189 174 179 173 172 173 176 160 155 154 156 180 213 212 212 216 221 216 213 217
246 252 256 267 278 274 261 250 235 230 228 235 258 269 283 302 315 311 312 309 299 279 273 260 254 227 192 188 205 174 156 147 159 167 173 198 210 234 220 207 235 238 228 229
231 259 279 274 265 263 266 255 243 240 241 248 265 274 287 308 336 339 334 320 292 281 276 272 260 251 231 201 203 211 200 167 156 188 226 230 218 226 238 243 252 259 251 239
216 229 255 269 271 287 261 239 231 231 229 237 249 261 297 322 326 322 324 328 304 287 278 263 277 267 263 227 192 205 226 192 184 215 245 251 242 241 243 248 253 257 258 253
231 225 237 269 274 244 245 258 210 219 239 231 240 288 314 310 316 317 310 305 307 305 303 288 274 275 281 273 204 190 195 201 219 238 245 250 246 254 257 255 252 259 259 252
224 217 224 233 246 267 262 239 194 207 251 246 245 284 307 317 316 317 345 340 313 308 315 312 306 302 300 284 252 215 218 223 232 243 246 249 242 245 253 257 253 252 254 254
216 216 220 231 243 254 262 354 11 132 250 321 281 300 324 342 314 307 345 347 336 329 323 329 336 339 316 288 269 243 239 235 240 246 248 245 241 242 244 245 249 251 249 249
192 212 222 236 248 261 270 236 95 195 234 345 340 318 311 294 277 297 327 331 331 331 326 323 312 292 277 279 273 257 253 248 248 249 250 247 242 243 246 249 248 246 248 250
197 205 214 221 238 247 44 78 199 255 329 346 341 331 314 300 300 304 311 310 307 304 297 298 290 281 272 262 262 263 259 256 252 250 253 253 250 249 251 249 252 247 244 244
214 217 228 219 232 274 310 256 281 313 314 319 321 320 312 300 295 292 292 290 285 280 276 280 280 282 281 270 256 267 272 268 259 256 255 255 253 249 244 242 246 249 246 244
262 286 287 284 271 293 290 291 306 303 298 302 301 302 298 290 289 287 281 281 285 288 282 278 278 276 279 278 264 258 266 262 250 253 257 253 250 253 249 245 241 240 242 243
275 276 275 276 283 294 286 303 316 318 313 303 296 289 281 280 282 280 278 277 277 285 283 275 271 272 276 280 273 266 264 261 256 255 258 260 253 253 255 253 246 245 243 239
246 248 252 267 286 288 291 291 297 297 295 289 284 284 277 267 270 273 274 275 274 273 275 274 272 274 278 278 275 270 263 256 256 259 258 256 255 255 255 260 269 257 254 258
Height
1486 1488 1488 1486 1484 1483 1482 1481 1479 1476 1475 1477 1477 1475 1473 1472 1472 1472 1472 1473 1473 1474 1475 1475 1476 1477 1478 1479 1480 1481 1482 1483 1483 1484 1485 1486 1488 1490 1493 1495 1496 1498 1500 1502
1485 1487 1484 1483 1483 1482 1481 1481 1479 1477 1475 1476 1475 1472 1469 1468 1468 1469 1470 1471 1472 1473 1473 1474 1475 1476 1477 1478 1479 1480 1481 1482 1482 1483 1484 1485 1486 1488 1491 1493 1494 1495 1497 1499
1484 1484 1482 1482 1482 1483 1480 1481 1480 1480 1477 1474 1475 1473 1467 1465 1466 1467 1468 1469 1470 1471 1472 1473 1474 1475 1476 1477 1478 1480 1481 1482 1483 1483 1484 1485 1485 1487 1488 1490 1491 1493 1494 1496
1482 1482 1483 1482 1482 1483 1482 1477 1478 1478 1482 1481 1476 1484 1467 1463 1464 1465 1467 1468 1469 1470 1471 1472 1473 1474 1475 1476 1478 1479 1480 1481 1482 1483 1484 1484 1484 1485 1487 1488 1489 1491 1492 1494
1482 1482 1483 1483 1482 1483 1481 1477 1477 1477 1479 1480 1475 1480 1469 1462 1465 1465 1465 1466 1468 1469 1470 1471 1472 1474 1475 1475 1476 1477 1478 1480 1481 1481 1482 1483 1483 1484 1485 1486 1487 1489 1490 1492
1482 1482 1482 1482 1481 1481 1480 1479 1476 1476 1480 1486 1473 1476 1471 1465 1462 1461 1463 1465 1466 1468 1470 1471 1472 1472 1473 1474 1475 1476 1477 1478 1479 1480 1481 1482 1483 1484 1484 1484 1486 1487 1488 1490
1481 1481 1482 1483 1483 1481 1481 1485 1490 1489 1488 1481 1465 1469 1468 1458 1457 1458 1461 1464 1466 1468 1469 1470 1471 1471 1472 1473 1474 1475 1476 1476 1477 1478 1479 1480 1481 1482 1483 1483 1484 1485 1486 1487
1484 1484 1481 1482 1483 1485 1482 1482 1492 1494 1487 1477 1469 1470 1464 1456 1456 1458 1460 1463 1466 1467 1468 1469 1470 1471 1471 1472 1473 1474 1474 1474 1475 1475 1476 1478 1479 1480 1481 1482 1483 1483 1483 1484
1483 1482 1480 1481 1482 1483 1482 1483 1482 1486 1482 1482 1471 1462 1461 1457 1458 1459 1461 1463 1465 1467 1468 1469 1470 1470 1471 1471 1472 1473 1472 1473 1473 1473 1475 1476 1477 1478 1479 1480 1480 1481 1481 1482
1481 1485 1480 1481 1482 1482 1482 1481 1485 1488 1488 1482 1466 1460 1463 1461 1460 1460 1461 1463 1465 1466 1467 1468 1469 1470 1470 1471 1471 1472 1471 1471 1471 1472 1473 1474 1475 1476 1477 1477 1478 1478 1479 1480
1481 1486 1484 1482 1482 1481 1483 1483 1483 1483 1482 1486 1479 1469 1455 1456 1457 1459 1461 1463 1464 1465 1466 1467 1468 1468 1469 1469 1470 1470 1470 1470 1470 1471 1471 1472 1473 1474 1474 1475 1476 1476 1477 1478
1481 1484 1486 1480 1477 1477 1477 1477 1481 1489 1486 1482 1484 1476 1456 1456 1457 1458 1460 1462 1463 1464 1465 1465 1466 1467 1467 1468 1468 1468 1468 1468 1468 1469 1470 1470 1471 1471 1472 1473 1474 1474 1475 1476
1482 1484 1488 1483 1483 1480 1479 1477 1477 1481 1485 1486 1486 1474 1459 1458 1459 1459 1460 1461 1462 1463 1463 1464 1464 1465 1465 1466 1466 1467 1467 1467 1467 1467 1467 1468 1469 1469 1470 1470 1471 1472 1472 1473
1481 1482 1484 1482 1475 1477 1478 1477 1477 1481 1489 1484 1475 1466 1460 1460 1460 1460 1460 1461 1461 1462 1462 1462 1462 1462 1463 1463 1463 1464 1464 1464 1465 1465 1465 1466 1466 1466 1467 1467 1468 1468 1469 1469
1481 1482 1477 1473 1471 1471 1471 1472 1473 1476 1475 1477 1467 1462 1460 1459 1459 1459 1459 1459 1460 1460 1460 1460 1460 1460 1461 1461 1461 1461 1461 1462 1462 1462 1463 1463 1463 1464 1464 1464 1465 1465 1465 1465
1479 1480 1477 1475 1469 1468 1467 1465 1465 1465 1465 1464 1462 1460 1458 1457 1457 1457 1458 1458 1458 1458 1458 1458 1458 1458 1458 1458 1458 1458 1458 1459 1459 1460 1460 1460 1460 1460 1460 1460 1460 1461 1461 1461
1477 1478 1480 1476 1467 1467 1467 1456 1456 1457 1456 1458 1460 1458 1455 1456 1455 1456 1456 1456 1456 1456 1455 1455 1455 1456 1456 1456 1456 1456 1456 1456 1456 1456 1457 1457 1457 1457 1457 1457 1457 1457 1457 1457
1473 1475 1478 1476 1473 1477 1455 1448 1447 1450 1452 1453 1453 1453 1454 1454 1454 1454 1454 1454 1453 1453 1453 1453 1453 1452 1452 1453 1453 1453 1453 1453 1453 1453 1453 1454 1454 1454 1453 1453 1453 1453 1453 1453
1466 1471 1475 1475 1472 1459 1451 1448 1447 1449 1451 1451 1451 1452 1452 1452 1451 1452 1452 1451 1451 1451 1450 1450 1450 1449 1449 1449 1449 1449 1449 1449 1449 1449 1449 1450 1450 1450 1449 1449 1450 1450 1450 1449
1463 1466 1472 1471 1470 1462 1450 1447 1445 1448 1453 1450 1449 1450 1450 1450 1453 1452 1450 1449 1449 1448 1447 1447 1446 1446 1445 1445 1446 1446 1446 1446 1445 1446 1446 1446 1446 1446 1445 1445 1445 1445 1445 1445
1466 1467 1469 1468 1465 1454 1449 1446 1446 1455 1453 1449 1448 1448 1449 1449 1451 1450 1448 1447 1446 1445 1444 1444 1443 1442 1442 1442 1442 1441 1441 1441 1442 1442 1442 1442 1441 1441 1441 1441 1441 1441 1441 1440
1460 1463 1463 1462 1462 1457 1448 1447 1450 1450 1448 1447 1447 1447 1447 1447 1446 1446 1445 1444 1443 1442 1441 1440 1440 1439 1439 1438 1438 1437 1437 1437 1437 1437 1437 1437 1437 1436 1436 1436 1436 1436 1435 1435
1452 1453 1452 1452 1452 1447 1445 1446 1447 1446 1446 1446 1446 1445 1445 1444 1443 1442 1441 1440 1440 1439 1438 1437 1436 1435 1435 1434 1434 1434 1433 1433 1433 1433 1432 1432 1432 1431 1431 1431 1430 1430 1429 1429
1449 1448 1448 1447 1444 1444 1444 1443 1443 1444 1443 1443 1443 1442 1441 1440 1439 1438 1437 1437 1436 1435 1434 1433 1432 1431 1430 1430 1430 1430 1429 1429 1428 1428 1427 1427 1427 1426 1425 1425 1424 1424 1423 1423
1448 1448 1447 1445 1443 1442 1440 1441 1441 1440 1440 1439 1438 1438 1437 1436 1434 1434 1433 1432 1431 1431 1430 1429 1428 1427 1426 1426 1426 1425 1425 1424 1423 1423 1422 1422 1421 1421 1420 1419 1419 1418 1417 1417
1444 1445 1445 1442 1440 1440 1438 1437 1437 1436 1435 1435 1434 1432 1431 1431 1429 1428 1428 1427 1427 1426 1425 1425 1424 1423 1422 1422 1421 1421 1420 1419 1419 1418 1417 1416 1416 1415 1414 1413 1412 1411 1412 1411